Time,TemperatureF,DewpointF,PressureIn,WindDirection,WindDirectionDegrees,WindSpeedMPH,WindSpeedGustMPH,Humidity,HourlyPrecipIn,Conditions,Clouds,dailyrainin,SoftwareType,DateUTC
2013-06-16 00:02:00,58.3,45.0,17.73,North,-999,-999.0,-999.0,39,0.00,,,0.00,meteohub,2013-06-16 07:02:00,
2013-06-16 00:07:00,58.1,44.2,17.73,North,-999,-999.0,-999.0,39,0.00,,,0.00,meteohub,2013-06-16 07:07:00,
2013-06-16 00:12:00,57.9,44.1,17.73,North,-999,-999.0,-999.0,39,0.00,,,0.00,meteohub,2013-06-16 07:12:00,
2013-06-16 00:17:00,57.9,44.1,17.73,North,-999,-999.0,-999.0,39,0.00,,,0.00,meteohub,2013-06-16 07:17:00,
2013-06-16 00:22:00,57.7,43.9,17.73,North,-999,-999.0,-999.0,39,0.00,,,0.00,meteohub,2013-06-16 07:22:00,
2013-06-16 00:27:00,57.6,43.7,17.73,North,-999,-999.0,-999.0,39,0.00,,,0.00,meteohub,2013-06-16 07:27:00,
2013-06-16 00:32:00,57.6,43.7,17.73,North,-999,-999.0,-999.0,39,0.00,,,0.00,meteohub,2013-06-16 07:32:00,
2013-06-16 00:37:00,57.4,43.7,17.73,North,-999,-999.0,-999.0,39,0.00,,,0.00,meteohub,2013-06-16 07:37:00,
2013-06-16 00:42:00,57.4,43.7,17.73,North,-999,-999.0,-999.0,39,0.00,,,0.00,meteohub,2013-06-16 07:42:00,
2013-06-16 00:47:00,57.2,43.5,17.73,North,-999,-999.0,-999.0,39,0.00,,,0.00,meteohub,2013-06-16 07:47:00,
2013-06-16 00:52:00,57.0,43.7,17.73,North,-999,-999.0,-999.0,39,0.00,,,0.00,meteohub,2013-06-16 07:52:00,
2013-06-16 00:57:00,57.0,43.7,17.73,North,-999,-999.0,-999.0,39,0.00,,,0.00,meteohub,2013-06-16 07:57:00,
2013-06-16 01:02:00,56.8,43.5,17.73,North,-999,-999.0,-999.0,39,0.00,,,0.00,meteohub,2013-06-16 08:02:00,
2013-06-16 01:07:00,56.7,43.3,17.73,North,-999,-999.0,-999.0,39,0.00,,,0.00,meteohub,2013-06-16 08:07:00,
2013-06-16 01:12:00,56.7,43.3,17.73,North,-999,-999.0,-999.0,39,0.00,,,0.00,meteohub,2013-06-16 08:12:00,
2013-06-16 01:17:00,56.7,43.3,17.73,North,-999,-999.0,-999.0,39,0.00,,,0.00,meteohub,2013-06-16 08:17:00,
2013-06-16 01:22:00,56.5,43.7,17.73,North,-999,-999.0,-999.0,39,0.00,,,0.00,meteohub,2013-06-16 08:22:00,
2013-06-16 01:27:00,56.3,43.5,17.73,North,-999,-999.0,-999.0,39,0.00,,,0.00,meteohub,2013-06-16 08:27:00,
2013-06-16 01:32:00,56.3,43.5,17.73,North,-999,-999.0,-999.0,39,0.00,,,0.00,meteohub,2013-06-16 08:32:00,
2013-06-16 01:37:00,56.3,43.5,17.73,North,-999,-999.0,-999.0,39,0.00,,,0.00,meteohub,2013-06-16 08:37:00,
2013-06-16 01:42:00,56.1,43.3,17.73,North,-999,-999.0,-999.0,39,0.00,,,0.00,meteohub,2013-06-16 08:42:00,
2013-06-16 01:47:00,56.1,43.3,17.73,North,-999,-999.0,-999.0,39,0.00,,,0.00,meteohub,2013-06-16 08:47:00,
2013-06-16 01:52:00,55.9,43.2,17.73,North,-999,-999.0,-999.0,39,0.00,,,0.00,meteohub,2013-06-16 08:52:00,
2013-06-16 01:57:00,55.9,43.2,17.73,North,-999,-999.0,-999.0,39,0.00,,,0.00,meteohub,2013-06-16 08:57:00,
2013-06-16 02:02:00,55.9,43.5,17.73,North,-999,-999.0,-999.0,39,0.00,,,0.00,meteohub,2013-06-16 09:02:00,
2013-06-16 02:07:00,55.9,43.5,17.73,North,-999,-999.0,-999.0,39,0.00,,,0.00,meteohub,2013-06-16 09:07:00,
2013-06-16 02:12:00,55.8,43.3,17.73,North,-999,-999.0,-999.0,39,0.00,,,0.00,meteohub,2013-06-16 09:12:00,
2013-06-16 02:17:00,55.6,43.2,17.73,North,-999,-999.0,-999.0,39,0.00,,,0.00,meteohub,2013-06-16 09:17:00,
2013-06-16 02:22:00,55.6,43.5,17.73,North,-999,-999.0,-999.0,39,0.00,,,0.00,meteohub,2013-06-16 09:22:00,
2013-06-16 02:27:00,55.4,43.3,17.73,North,-999,-999.0,-999.0,39,0.00,,,0.00,meteohub,2013-06-16 09:27:00,
2013-06-16 02:32:00,55.4,43.3,17.73,North,-999,-999.0,-999.0,39,0.00,,,0.00,meteohub,2013-06-16 09:32:00,
2013-06-16 02:37:00,55.4,43.3,17.73,North,-999,-999.0,-999.0,39,0.00,,,0.00,meteohub,2013-06-16 09:37:00,
2013-06-16 02:42:00,55.2,43.3,17.73,North,-999,-999.0,-999.0,39,0.00,,,0.00,meteohub,2013-06-16 09:42:00,
2013-06-16 02:47:00,55.0,43.5,17.73,North,-999,-999.0,-999.0,39,0.00,,,0.00,meteohub,2013-06-16 09:47:00,
2013-06-16 02:52:00,54.9,43.3,17.73,North,-999,-999.0,-999.0,39,0.00,,,0.00,meteohub,2013-06-16 09:52:00,
2013-06-16 02:57:00,54.9,43.7,17.73,North,-999,-999.0,-999.0,39,0.00,,,0.00,meteohub,2013-06-16 09:57:00,
2013-06-16 03:02:00,54.7,43.5,17.73,North,-999,-999.0,-999.0,39,0.00,,,0.00,meteohub,2013-06-16 10:02:00,
2013-06-16 03:07:00,54.7,43.5,17.73,North,-999,-999.0,-999.0,39,0.00,,,0.00,meteohub,2013-06-16 10:07:00,
2013-06-16 03:12:00,54.7,43.5,17.73,North,-999,-999.0,-999.0,39,0.00,,,0.00,meteohub,2013-06-16 10:12:00,
2013-06-16 03:17:00,54.7,43.5,17.73,North,-999,-999.0,-999.0,39,0.00,,,0.00,meteohub,2013-06-16 10:17:00,
2013-06-16 03:22:00,54.5,43.3,17.73,North,-999,-999.0,-999.0,39,0.00,,,0.00,meteohub,2013-06-16 10:22:00,
2013-06-16 03:27:00,54.5,43.3,17.73,North,-999,-999.0,-999.0,39,0.00,,,0.00,meteohub,2013-06-16 10:27:00,
2013-06-16 03:32:00,54.5,43.3,17.73,North,-999,-999.0,-999.0,39,0.00,,,0.00,meteohub,2013-06-16 10:32:00,
2013-06-16 03:37:00,54.3,43.2,17.73,North,-999,-999.0,-999.0,39,0.00,,,0.00,meteohub,2013-06-16 10:37:00,
2013-06-16 03:42:00,54.3,43.2,17.73,North,-999,-999.0,-999.0,39,0.00,,,0.00,meteohub,2013-06-16 10:42:00,
2013-06-16 03:47:00,54.1,43.0,17.73,North,-999,-999.0,-999.0,39,0.00,,,0.00,meteohub,2013-06-16 10:47:00,
2013-06-16 03:52:00,54.0,42.8,17.73,North,-999,-999.0,-999.0,39,0.00,,,0.00,meteohub,2013-06-16 10:52:00,
2013-06-16 03:57:00,54.0,42.8,17.73,North,-999,-999.0,-999.0,39,0.00,,,0.00,meteohub,2013-06-16 10:57:00,
2013-06-16 04:02:00,54.0,42.8,17.73,North,-999,-999.0,-999.0,39,0.00,,,0.00,meteohub,2013-06-16 11:02:00,
2013-06-16 04:07:00,53.8,42.6,17.73,North,-999,-999.0,-999.0,39,0.00,,,0.00,meteohub,2013-06-16 11:07:00,
2013-06-16 04:12:00,53.8,42.6,17.73,North,-999,-999.0,-999.0,39,0.00,,,0.00,meteohub,2013-06-16 11:12:00,
2013-06-16 04:17:00,53.6,42.4,17.73,North,-999,-999.0,-999.0,39,0.00,,,0.00,meteohub,2013-06-16 11:17:00,
2013-06-16 04:22:00,53.6,42.4,17.73,North,-999,-999.0,-999.0,39,0.00,,,0.00,meteohub,2013-06-16 11:22:00,
2013-06-16 04:27:00,53.4,42.8,17.73,North,-999,-999.0,-999.0,39,0.00,,,0.00,meteohub,2013-06-16 11:27:00,
2013-06-16 04:32:00,53.4,42.8,17.73,North,-999,-999.0,-999.0,39,0.00,,,0.00,meteohub,2013-06-16 11:32:00,
2013-06-16 04:37:00,53.4,43.2,17.73,North,-999,-999.0,-999.0,39,0.00,,,0.00,meteohub,2013-06-16 11:37:00,
2013-06-16 04:42:00,53.4,43.2,17.73,North,-999,-999.0,-999.0,39,0.00,,,0.00,meteohub,2013-06-16 11:42:00,
2013-06-16 04:47:00,53.4,43.2,17.73,North,-999,-999.0,-999.0,39,0.00,,,0.00,meteohub,2013-06-16 11:47:00,
2013-06-16 04:52:00,53.2,43.0,17.73,North,-999,-999.0,-999.0,39,0.00,,,0.00,meteohub,2013-06-16 11:52:00,
2013-06-16 04:57:00,53.2,43.0,17.73,North,-999,-999.0,-999.0,39,0.00,,,0.00,meteohub,2013-06-16 11:57:00,
2013-06-16 05:02:00,53.2,43.3,17.73,North,-999,-999.0,-999.0,39,0.00,,,0.00,meteohub,2013-06-16 12:02:00,
2013-06-16 05:07:00,53.1,43.2,17.73,North,-999,-999.0,-999.0,39,0.00,,,0.00,meteohub,2013-06-16 12:07:00,
2013-06-16 05:12:00,53.1,43.2,17.73,North,-999,-999.0,-999.0,39,0.00,,,0.00,meteohub,2013-06-16 12:12:00,
2013-06-16 05:17:00,53.2,43.3,17.73,North,-999,-999.0,-999.0,39,0.00,,,0.00,meteohub,2013-06-16 12:17:00,
2013-06-16 05:22:00,53.1,43.2,17.73,North,-999,-999.0,-999.0,39,0.00,,,0.00,meteohub,2013-06-16 12:22:00,
2013-06-16 05:27:00,53.1,43.2,17.73,North,-999,-999.0,-999.0,39,0.00,,,0.00,meteohub,2013-06-16 12:27:00,
2013-06-16 05:32:00,53.1,43.2,17.73,North,-999,-999.0,-999.0,39,0.00,,,0.00,meteohub,2013-06-16 12:32:00,
2013-06-16 05:37:00,53.1,43.2,17.73,North,-999,-999.0,-999.0,39,0.00,,,0.00,meteohub,2013-06-16 12:37:00,
2013-06-16 05:42:00,53.1,43.2,17.73,North,-999,-999.0,-999.0,39,0.00,,,0.00,meteohub,2013-06-16 12:42:00,
2013-06-16 05:47:00,53.1,43.2,17.73,North,-999,-999.0,-999.0,39,0.00,,,0.00,meteohub,2013-06-16 12:47:00,
2013-06-16 05:52:00,53.1,43.2,17.73,North,-999,-999.0,-999.0,39,0.00,,,0.00,meteohub,2013-06-16 12:52:00,
2013-06-16 05:57:00,52.9,43.0,17.73,North,-999,-999.0,-999.0,39,0.00,,,0.00,meteohub,2013-06-16 12:57:00,
2013-06-16 06:02:00,52.9,43.0,17.73,North,-999,-999.0,-999.0,39,0.00,,,0.00,meteohub,2013-06-16 13:02:00,
2013-06-16 06:07:00,52.9,43.3,17.73,North,-999,-999.0,-999.0,39,0.00,,,0.00,meteohub,2013-06-16 13:07:00,
2013-06-16 06:12:00,52.9,43.3,17.73,North,-999,-999.0,-999.0,39,0.00,,,0.00,meteohub,2013-06-16 13:12:00,
2013-06-16 06:17:00,52.9,43.3,17.73,North,-999,-999.0,-999.0,39,0.00,,,0.00,meteohub,2013-06-16 13:17:00,
2013-06-16 06:22:00,52.9,43.3,17.73,North,-999,-999.0,-999.0,39,0.00,,,0.00,meteohub,2013-06-16 13:22:00,
2013-06-16 06:27:00,53.1,43.9,17.73,North,-999,-999.0,-999.0,39,0.00,,,0.00,meteohub,2013-06-16 13:27:00,
2013-06-16 06:32:00,53.1,43.9,17.73,North,-999,-999.0,-999.0,39,0.00,,,0.00,meteohub,2013-06-16 13:32:00,
2013-06-16 06:37:00,53.2,44.1,17.73,North,-999,-999.0,-999.0,39,0.00,,,0.00,meteohub,2013-06-16 13:37:00,
2013-06-16 06:42:00,53.4,44.6,17.73,North,-999,-999.0,-999.0,39,0.00,,,0.00,meteohub,2013-06-16 13:42:00,
2013-06-16 06:47:00,53.6,44.4,17.73,North,-999,-999.0,-999.0,39,0.00,,,0.00,meteohub,2013-06-16 13:47:00,
2013-06-16 06:52:00,53.6,44.4,17.73,North,-999,-999.0,-999.0,39,0.00,,,0.00,meteohub,2013-06-16 13:52:00,
2013-06-16 06:57:00,53.6,44.4,17.73,North,-999,-999.0,-999.0,39,0.00,,,0.00,meteohub,2013-06-16 13:57:00,
2013-06-16 07:02:00,53.8,45.0,17.73,North,-999,-999.0,-999.0,39,0.00,,,0.00,meteohub,2013-06-16 14:02:00,
2013-06-16 07:07:00,54.0,45.1,17.73,North,-999,-999.0,-999.0,39,0.00,,,0.00,meteohub,2013-06-16 14:07:00,
2013-06-16 07:12:00,54.3,45.9,17.73,North,-999,-999.0,-999.0,39,0.00,,,0.00,meteohub,2013-06-16 14:12:00,
2013-06-16 07:17:00,54.5,46.0,17.73,North,-999,-999.0,-999.0,39,0.00,,,0.00,meteohub,2013-06-16 14:17:00,
2013-06-16 07:22:00,54.9,46.4,17.73,North,-999,-999.0,-999.0,39,0.00,,,0.00,meteohub,2013-06-16 14:22:00,
2013-06-16 07:27:00,55.4,47.3,17.73,North,-999,-999.0,-999.0,39,0.00,,,0.00,meteohub,2013-06-16 14:27:00,
2013-06-16 07:32:00,55.9,47.8,17.73,North,-999,-999.0,-999.0,40,0.00,,,0.00,meteohub,2013-06-16 14:32:00,
2013-06-16 07:37:00,56.1,48.0,17.73,North,-999,-999.0,-999.0,40,0.00,,,0.00,meteohub,2013-06-16 14:37:00,
2013-06-16 07:42:00,56.5,48.4,17.73,North,-999,-999.0,-999.0,40,0.00,,,0.00,meteohub,2013-06-16 14:42:00,
2013-06-16 07:47:00,56.8,48.6,17.73,North,-999,-999.0,-999.0,40,0.00,,,0.00,meteohub,2013-06-16 14:47:00,
2013-06-16 07:52:00,57.2,48.9,17.73,North,-999,-999.0,-999.0,40,0.00,,,0.00,meteohub,2013-06-16 14:52:00,
2013-06-16 07:57:00,57.6,48.9,17.73,North,-999,-999.0,-999.0,40,0.00,,,0.00,meteohub,2013-06-16 14:57:00,
2013-06-16 08:02:00,57.7,49.1,17.73,North,-999,-999.0,-999.0,40,0.00,,,0.00,meteohub,2013-06-16 15:02:00,
2013-06-16 08:07:00,58.1,49.1,17.73,North,-999,-999.0,-999.0,40,0.00,,,0.00,meteohub,2013-06-16 15:07:00,
2013-06-16 08:12:00,58.3,48.9,17.73,North,-999,-999.0,-999.0,40,0.00,,,0.00,meteohub,2013-06-16 15:12:00,
2013-06-16 08:17:00,58.5,49.1,17.73,North,-999,-999.0,-999.0,40,0.00,,,0.00,meteohub,2013-06-16 15:17:00,
2013-06-16 08:22:00,58.8,48.7,17.73,North,-999,-999.0,-999.0,40,0.00,,,0.00,meteohub,2013-06-16 15:22:00,
2013-06-16 08:27:00,59.2,48.6,17.73,North,-999,-999.0,-999.0,40,0.00,,,0.00,meteohub,2013-06-16 15:27:00,
2013-06-16 08:32:00,59.2,48.2,17.73,North,-999,-999.0,-999.0,40,0.00,,,0.00,meteohub,2013-06-16 15:32:00,
2013-06-16 08:37:00,59.4,48.4,17.73,North,-999,-999.0,-999.0,41,0.00,,,0.00,meteohub,2013-06-16 15:37:00,
2013-06-16 08:42:00,59.7,48.0,17.73,North,-999,-999.0,-999.0,41,0.00,,,0.00,meteohub,2013-06-16 15:42:00,
2013-06-16 08:47:00,60.1,47.5,17.73,North,-999,-999.0,-999.0,41,0.00,,,0.00,meteohub,2013-06-16 15:47:00,
2013-06-16 08:52:00,60.6,47.5,17.73,North,-999,-999.0,-999.0,41,0.00,,,0.00,meteohub,2013-06-16 15:52:00,
2013-06-16 08:57:00,60.8,46.8,17.73,North,-999,-999.0,-999.0,41,0.00,,,0.00,meteohub,2013-06-16 15:57:00,
2013-06-16 09:02:00,61.0,46.9,17.73,North,-999,-999.0,-999.0,41,0.00,,,0.00,meteohub,2013-06-16 16:02:00,
2013-06-16 09:07:00,61.0,46.6,17.73,North,-999,-999.0,-999.0,41,0.00,,,0.00,meteohub,2013-06-16 16:07:00,
2013-06-16 09:12:00,61.3,46.9,17.73,North,-999,-999.0,-999.0,41,0.00,,,0.00,meteohub,2013-06-16 16:12:00,
2013-06-16 09:17:00,61.7,46.8,17.73,North,-999,-999.0,-999.0,41,0.00,,,0.00,meteohub,2013-06-16 16:17:00,
2013-06-16 09:22:00,62.1,46.6,17.73,North,-999,-999.0,-999.0,41,0.00,,,0.00,meteohub,2013-06-16 16:22:00,
2013-06-16 09:27:00,62.2,45.9,17.73,North,-999,-999.0,-999.0,41,0.00,,,0.00,meteohub,2013-06-16 16:27:00,
2013-06-16 09:32:00,62.4,46.0,17.73,North,-999,-999.0,-999.0,41,0.00,,,0.00,meteohub,2013-06-16 16:32:00,
2013-06-16 09:37:00,62.6,46.2,17.73,North,-999,-999.0,-999.0,41,0.00,,,0.00,meteohub,2013-06-16 16:37:00,
2013-06-16 09:42:00,63.0,46.0,17.73,North,-999,-999.0,-999.0,41,0.00,,,0.00,meteohub,2013-06-16 16:42:00,
2013-06-16 09:47:00,63.5,47.1,17.73,North,-999,-999.0,-999.0,41,0.00,,,0.00,meteohub,2013-06-16 16:47:00,
2013-06-16 09:52:00,63.9,46.4,17.73,North,-999,-999.0,-999.0,41,0.00,,,0.00,meteohub,2013-06-16 16:52:00,
2013-06-16 09:57:00,64.0,46.6,17.73,North,-999,-999.0,-999.0,41,0.00,,,0.00,meteohub,2013-06-16 16:57:00,
2013-06-16 10:02:00,64.6,46.6,17.73,North,-999,-999.0,-999.0,41,0.00,,,0.00,meteohub,2013-06-16 17:02:00,
2013-06-16 10:07:00,65.1,46.0,17.73,North,-999,-999.0,-999.0,41,0.00,,,0.00,meteohub,2013-06-16 17:07:00,
2013-06-16 10:12:00,65.7,46.0,17.73,North,-999,-999.0,-999.0,41,0.00,,,0.00,meteohub,2013-06-16 17:12:00,
2013-06-16 10:17:00,65.8,46.2,17.73,North,-999,-999.0,-999.0,41,0.00,,,0.00,meteohub,2013-06-16 17:17:00,
2013-06-16 10:22:00,66.2,45.9,17.73,North,-999,-999.0,-999.0,41,0.00,,,0.00,meteohub,2013-06-16 17:22:00,
2013-06-16 10:27:00,66.4,45.5,17.73,North,-999,-999.0,-999.0,41,0.00,,,0.00,meteohub,2013-06-16 17:27:00,
2013-06-16 10:32:00,66.7,45.9,17.73,North,-999,-999.0,-999.0,41,0.00,,,0.00,meteohub,2013-06-16 17:32:00,
2013-06-16 10:37:00,66.9,46.0,17.73,North,-999,-999.0,-999.0,41,0.00,,,0.00,meteohub,2013-06-16 17:37:00,
2013-06-16 10:42:00,67.5,46.6,17.73,North,-999,-999.0,-999.0,41,0.00,,,0.00,meteohub,2013-06-16 17:42:00,
2013-06-16 10:47:00,67.8,45.7,17.73,North,-999,-999.0,-999.0,41,0.00,,,0.00,meteohub,2013-06-16 17:47:00,
2013-06-16 10:52:00,68.2,45.5,17.73,North,-999,-999.0,-999.0,40,0.00,,,0.00,meteohub,2013-06-16 17:52:00,
2013-06-16 10:57:00,68.4,46.2,17.73,North,-999,-999.0,-999.0,40,0.00,,,0.00,meteohub,2013-06-16 17:57:00,
2013-06-16 11:02:00,68.4,46.2,17.73,North,-999,-999.0,-999.0,40,0.00,,,0.00,meteohub,2013-06-16 18:02:00,
2013-06-16 11:07:00,68.5,46.4,17.73,North,-999,-999.0,-999.0,40,0.00,,,0.00,meteohub,2013-06-16 18:07:00,
2013-06-16 11:12:00,68.7,46.6,17.73,North,-999,-999.0,-999.0,40,0.00,,,0.00,meteohub,2013-06-16 18:12:00,
2013-06-16 11:17:00,68.9,46.8,17.73,North,-999,-999.0,-999.0,40,0.00,,,0.00,meteohub,2013-06-16 18:17:00,
2013-06-16 11:22:00,69.1,46.8,17.73,North,-999,-999.0,-999.0,40,0.00,,,0.00,meteohub,2013-06-16 18:22:00,
2013-06-16 11:27:00,69.3,46.9,17.73,North,-999,-999.0,-999.0,40,0.00,,,0.00,meteohub,2013-06-16 18:27:00,
2013-06-16 11:32:00,69.4,47.1,17.73,North,-999,-999.0,-999.0,40,0.00,,,0.00,meteohub,2013-06-16 18:32:00,
2013-06-16 11:37:00,69.6,47.3,17.73,North,-999,-999.0,-999.0,40,0.00,,,0.00,meteohub,2013-06-16 18:37:00,
2013-06-16 11:42:00,69.8,46.9,17.73,North,-999,-999.0,-999.0,40,0.00,,,0.00,meteohub,2013-06-16 18:42:00,
2013-06-16 11:47:00,70.0,47.1,17.73,North,-999,-999.0,-999.0,40,0.00,,,0.00,meteohub,2013-06-16 18:47:00,
2013-06-16 11:52:00,70.2,47.3,17.73,North,-999,-999.0,-999.0,40,0.00,,,0.00,meteohub,2013-06-16 18:52:00,
2013-06-16 11:57:00,70.2,47.3,17.73,North,-999,-999.0,-999.0,40,0.00,,,0.00,meteohub,2013-06-16 18:57:00,
2013-06-16 12:02:00,70.5,47.5,17.73,North,-999,-999.0,-999.0,40,0.00,,,0.00,meteohub,2013-06-16 19:02:00,
2013-06-16 12:07:00,70.7,47.1,17.73,North,-999,-999.0,-999.0,40,0.00,,,0.00,meteohub,2013-06-16 19:07:00,
2013-06-16 12:12:00,70.9,46.6,17.73,North,-999,-999.0,-999.0,40,0.00,,,0.00,meteohub,2013-06-16 19:12:00,
2013-06-16 12:17:00,71.2,47.7,17.73,North,-999,-999.0,-999.0,40,0.00,,,0.00,meteohub,2013-06-16 19:17:00,
2013-06-16 12:22:00,71.2,46.9,17.73,North,-999,-999.0,-999.0,40,0.00,,,0.00,meteohub,2013-06-16 19:22:00,
2013-06-16 12:27:00,71.4,46.6,17.73,North,-999,-999.0,-999.0,40,0.00,,,0.00,meteohub,2013-06-16 19:27:00,
2013-06-16 12:32:00,71.4,46.6,17.73,North,-999,-999.0,-999.0,40,0.00,,,0.00,meteohub,2013-06-16 19:32:00,
2013-06-16 12:37:00,71.8,46.8,17.73,North,-999,-999.0,-999.0,40,0.00,,,0.00,meteohub,2013-06-16 19:37:00,
2013-06-16 12:42:00,72.1,46.4,17.73,North,-999,-999.0,-999.0,40,0.00,,,0.00,meteohub,2013-06-16 19:42:00,
2013-06-16 12:47:00,72.3,45.3,17.73,North,-999,-999.0,-999.0,40,0.00,,,0.00,meteohub,2013-06-16 19:47:00,
2013-06-16 12:52:00,72.7,45.7,17.73,North,-999,-999.0,-999.0,40,0.00,,,0.00,meteohub,2013-06-16 19:52:00,
2013-06-16 12:57:00,73.0,45.1,17.73,North,-999,-999.0,-999.0,40,0.00,,,0.00,meteohub,2013-06-16 19:57:00,
2013-06-16 13:02:00,73.2,45.3,17.73,North,-999,-999.0,-999.0,40,0.00,,,0.00,meteohub,2013-06-16 20:02:00,
2013-06-16 13:07:00,73.8,45.9,17.73,North,-999,-999.0,-999.0,40,0.00,,,0.00,meteohub,2013-06-16 20:07:00,
2013-06-16 13:12:00,74.1,46.2,17.73,North,-999,-999.0,-999.0,40,0.00,,,0.00,meteohub,2013-06-16 20:12:00,
2013-06-16 13:17:00,74.7,46.6,17.73,North,-999,-999.0,-999.0,40,0.00,,,0.00,meteohub,2013-06-16 20:17:00,
2013-06-16 13:22:00,74.8,46.0,17.73,North,-999,-999.0,-999.0,40,0.00,,,0.00,meteohub,2013-06-16 20:22:00,
2013-06-16 13:27:00,75.2,45.7,17.73,North,-999,-999.0,-999.0,40,0.00,,,0.00,meteohub,2013-06-16 20:27:00,
2013-06-16 13:32:00,75.4,45.9,17.73,North,-999,-999.0,-999.0,40,0.00,,,0.00,meteohub,2013-06-16 20:32:00,
2013-06-16 13:37:00,75.7,46.2,17.73,North,-999,-999.0,-999.0,40,0.00,,,0.00,meteohub,2013-06-16 20:37:00,
2013-06-16 13:42:00,75.7,46.2,17.73,North,-999,-999.0,-999.0,40,0.00,,,0.00,meteohub,2013-06-16 20:42:00,
2013-06-16 13:47:00,76.1,47.1,17.73,North,-999,-999.0,-999.0,40,0.00,,,0.00,meteohub,2013-06-16 20:47:00,
2013-06-16 13:52:00,76.3,45.9,17.73,North,-999,-999.0,-999.0,40,0.00,,,0.00,meteohub,2013-06-16 20:52:00,
2013-06-16 13:57:00,76.6,46.2,17.73,North,-999,-999.0,-999.0,40,0.00,,,0.00,meteohub,2013-06-16 20:57:00,
2013-06-16 14:02:00,77.0,45.7,17.73,North,-999,-999.0,-999.0,40,0.00,,,0.00,meteohub,2013-06-16 21:02:00,
2013-06-16 14:07:00,77.4,46.0,17.73,North,-999,-999.0,-999.0,40,0.00,,,0.00,meteohub,2013-06-16 21:07:00,
2013-06-16 14:12:00,77.4,46.0,17.73,North,-999,-999.0,-999.0,40,0.00,,,0.00,meteohub,2013-06-16 21:12:00,
2013-06-16 14:17:00,78.3,46.8,17.73,North,-999,-999.0,-999.0,40,0.00,,,0.00,meteohub,2013-06-16 21:17:00,
2013-06-16 14:22:00,79.0,45.7,17.73,North,-999,-999.0,-999.0,40,0.00,,,0.00,meteohub,2013-06-16 21:22:00,
2013-06-16 14:27:00,79.5,47.1,17.73,North,-999,-999.0,-999.0,40,0.00,,,0.00,meteohub,2013-06-16 21:27:00,
2013-06-16 14:32:00,80.2,46.9,17.73,North,-999,-999.0,-999.0,40,0.00,,,0.00,meteohub,2013-06-16 21:32:00,
2013-06-16 14:37:00,80.6,47.1,17.73,North,-999,-999.0,-999.0,40,0.00,,,0.00,meteohub,2013-06-16 21:37:00,
2013-06-16 14:42:00,81.1,46.8,17.73,North,-999,-999.0,-999.0,40,0.00,,,0.00,meteohub,2013-06-16 21:42:00,
2013-06-16 14:47:00,81.1,46.8,17.73,North,-999,-999.0,-999.0,40,0.00,,,0.00,meteohub,2013-06-16 21:47:00,
2013-06-16 14:52:00,81.3,47.8,17.73,North,-999,-999.0,-999.0,40,0.00,,,0.00,meteohub,2013-06-16 21:52:00,
2013-06-16 14:57:00,81.9,44.6,17.73,North,-999,-999.0,-999.0,40,0.00,,,0.00,meteohub,2013-06-16 21:57:00,
2013-06-16 15:02:00,82.2,45.0,17.73,North,-999,-999.0,-999.0,40,0.00,,,0.00,meteohub,2013-06-16 22:02:00,
2013-06-16 15:07:00,82.8,44.4,17.73,North,-999,-999.0,-999.0,40,0.00,,,0.00,meteohub,2013-06-16 22:07:00,
2013-06-16 15:12:00,83.1,43.7,17.73,North,-999,-999.0,-999.0,40,0.00,,,0.00,meteohub,2013-06-16 22:12:00,
2013-06-16 15:17:00,83.3,43.9,17.73,North,-999,-999.0,-999.0,40,0.00,,,0.00,meteohub,2013-06-16 22:17:00,
2013-06-16 15:22:00,83.7,44.1,17.73,North,-999,-999.0,-999.0,40,0.00,,,0.00,meteohub,2013-06-16 22:22:00,
2013-06-16 15:27:00,83.8,43.2,17.73,North,-999,-999.0,-999.0,40,0.00,,,0.00,meteohub,2013-06-16 22:27:00,
2013-06-16 15:32:00,84.2,43.5,17.73,North,-999,-999.0,-999.0,40,0.00,,,0.00,meteohub,2013-06-16 22:32:00,
2013-06-16 15:37:00,84.2,43.5,17.73,North,-999,-999.0,-999.0,40,0.00,,,0.00,meteohub,2013-06-16 22:37:00,
2013-06-16 15:42:00,84.4,42.6,17.73,North,-999,-999.0,-999.0,40,0.00,,,0.00,meteohub,2013-06-16 22:42:00,
2013-06-16 15:47:00,84.6,42.6,17.73,North,-999,-999.0,-999.0,40,0.00,,,0.00,meteohub,2013-06-16 22:47:00,
2013-06-16 15:52:00,84.7,42.8,17.73,North,-999,-999.0,-999.0,40,0.00,,,0.00,meteohub,2013-06-16 22:52:00,
2013-06-16 15:57:00,85.3,43.3,17.73,North,-999,-999.0,-999.0,40,0.00,,,0.00,meteohub,2013-06-16 22:57:00,
2013-06-16 16:02:00,85.3,43.3,17.73,North,-999,-999.0,-999.0,40,0.00,,,0.00,meteohub,2013-06-16 23:02:00,
2013-06-16 16:07:00,84.9,43.0,17.73,North,-999,-999.0,-999.0,40,0.00,,,0.00,meteohub,2013-06-16 23:07:00,
2013-06-16 16:12:00,84.7,42.8,17.73,North,-999,-999.0,-999.0,40,0.00,,,0.00,meteohub,2013-06-16 23:12:00,
2013-06-16 16:17:00,84.6,42.6,17.73,North,-999,-999.0,-999.0,40,0.00,,,0.00,meteohub,2013-06-16 23:17:00,
2013-06-16 16:22:00,84.6,42.6,17.73,North,-999,-999.0,-999.0,40,0.00,,,0.00,meteohub,2013-06-16 23:22:00,
2013-06-16 16:27:00,84.4,42.6,17.73,North,-999,-999.0,-999.0,40,0.00,,,0.00,meteohub,2013-06-16 23:27:00,
2013-06-16 16:32:00,84.4,41.4,17.73,North,-999,-999.0,-999.0,40,0.00,,,0.00,meteohub,2013-06-16 23:32:00,
2013-06-16 16:37:00,84.2,41.2,17.73,North,-999,-999.0,-999.0,39,0.00,,,0.00,meteohub,2013-06-16 23:37:00,
2013-06-16 16:42:00,83.8,41.0,17.73,North,-999,-999.0,-999.0,39,0.00,,,0.00,meteohub,2013-06-16 23:42:00,
2013-06-16 16:47:00,83.7,40.8,17.73,North,-999,-999.0,-999.0,39,0.00,,,0.00,meteohub,2013-06-16 23:47:00,
2013-06-16 16:52:00,83.5,40.6,17.73,North,-999,-999.0,-999.0,39,0.00,,,0.00,meteohub,2013-06-16 23:52:00,
2013-06-16 16:57:00,83.3,40.5,17.73,North,-999,-999.0,-999.0,39,0.00,,,0.00,meteohub,2013-06-16 23:57:00,
2013-06-16 17:02:00,83.1,40.3,17.73,North,-999,-999.0,-999.0,39,0.00,,,0.00,meteohub,2013-06-17 00:02:00,
2013-06-16 17:07:00,82.8,41.2,17.73,North,-999,-999.0,-999.0,39,0.00,,,0.00,meteohub,2013-06-17 00:07:00,
2013-06-16 17:12:00,82.6,41.0,17.73,North,-999,-999.0,-999.0,39,0.00,,,0.00,meteohub,2013-06-17 00:12:00,
2013-06-16 17:17:00,82.0,41.7,17.73,North,-999,-999.0,-999.0,39,0.00,,,0.00,meteohub,2013-06-17 00:17:00,
2013-06-16 17:22:00,81.7,40.3,17.73,North,-999,-999.0,-999.0,39,0.00,,,0.00,meteohub,2013-06-17 00:22:00,
2013-06-16 17:27:00,81.3,41.0,17.73,North,-999,-999.0,-999.0,39,0.00,,,0.00,meteohub,2013-06-17 00:27:00,
2013-06-16 17:32:00,81.1,41.0,17.73,North,-999,-999.0,-999.0,38,0.00,,,0.00,meteohub,2013-06-17 00:32:00,
2013-06-16 17:37:00,80.8,40.6,17.73,North,-999,-999.0,-999.0,38,0.00,,,0.00,meteohub,2013-06-17 00:37:00,
2013-06-16 17:42:00,80.4,41.4,17.73,North,-999,-999.0,-999.0,38,0.00,,,0.00,meteohub,2013-06-17 00:42:00,
2013-06-16 17:47:00,80.1,41.0,17.73,North,-999,-999.0,-999.0,38,0.00,,,0.00,meteohub,2013-06-17 00:47:00,
2013-06-16 17:52:00,79.9,41.0,17.73,North,-999,-999.0,-999.0,38,0.00,,,0.00,meteohub,2013-06-17 00:52:00,
2013-06-16 17:57:00,79.3,40.5,17.73,North,-999,-999.0,-999.0,38,0.00,,,0.00,meteohub,2013-06-17 00:57:00,
2013-06-16 18:02:00,79.0,40.1,17.73,North,-999,-999.0,-999.0,38,0.00,,,0.00,meteohub,2013-06-17 01:02:00,
2013-06-16 18:07:00,78.8,39.9,17.73,North,-999,-999.0,-999.0,38,0.00,,,0.00,meteohub,2013-06-17 01:07:00,
2013-06-16 18:12:00,78.3,40.6,17.73,North,-999,-999.0,-999.0,38,0.00,,,0.00,meteohub,2013-06-17 01:12:00,
2013-06-16 18:17:00,78.1,40.5,17.73,North,-999,-999.0,-999.0,38,0.00,,,0.00,meteohub,2013-06-17 01:17:00,
2013-06-16 18:22:00,77.7,41.0,17.73,North,-999,-999.0,-999.0,38,0.00,,,0.00,meteohub,2013-06-17 01:22:00,
2013-06-16 18:27:00,77.4,40.8,17.73,North,-999,-999.0,-999.0,38,0.00,,,0.00,meteohub,2013-06-17 01:27:00,
2013-06-16 18:32:00,76.8,40.3,17.73,North,-999,-999.0,-999.0,38,0.00,,,0.00,meteohub,2013-06-17 01:32:00,
2013-06-16 18:37:00,76.5,39.9,17.73,North,-999,-999.0,-999.0,38,0.00,,,0.00,meteohub,2013-06-17 01:37:00,
2013-06-16 18:42:00,76.1,39.7,17.73,North,-999,-999.0,-999.0,38,0.00,,,0.00,meteohub,2013-06-17 01:42:00,
2013-06-16 18:47:00,75.7,40.3,17.73,North,-999,-999.0,-999.0,38,0.00,,,0.00,meteohub,2013-06-17 01:47:00,
2013-06-16 18:52:00,75.6,40.1,17.73,North,-999,-999.0,-999.0,38,0.00,,,0.00,meteohub,2013-06-17 01:52:00,
2013-06-16 18:57:00,75.4,41.0,17.73,North,-999,-999.0,-999.0,38,0.00,,,0.00,meteohub,2013-06-17 01:57:00,
2013-06-16 19:02:00,75.0,40.6,17.73,North,-999,-999.0,-999.0,38,0.00,,,0.00,meteohub,2013-06-17 02:02:00,
2013-06-16 19:07:00,74.8,40.5,17.73,North,-999,-999.0,-999.0,38,0.00,,,0.00,meteohub,2013-06-17 02:07:00,
2013-06-16 19:12:00,74.7,41.2,17.73,North,-999,-999.0,-999.0,38,0.00,,,0.00,meteohub,2013-06-17 02:12:00,
2013-06-16 19:17:00,74.5,40.1,17.73,North,-999,-999.0,-999.0,38,0.00,,,0.00,meteohub,2013-06-17 02:17:00,
2013-06-16 19:22:00,74.1,39.9,17.73,North,-999,-999.0,-999.0,38,0.00,,,0.00,meteohub,2013-06-17 02:22:00,
2013-06-16 19:27:00,73.9,39.7,17.73,North,-999,-999.0,-999.0,38,0.00,,,0.00,meteohub,2013-06-17 02:27:00,
2013-06-16 19:32:00,73.6,39.4,17.73,North,-999,-999.0,-999.0,38,0.00,,,0.00,meteohub,2013-06-17 02:32:00,
2013-06-16 19:37:00,73.6,39.4,17.73,North,-999,-999.0,-999.0,38,0.00,,,0.00,meteohub,2013-06-17 02:37:00,
2013-06-16 19:42:00,73.2,39.0,17.73,North,-999,-999.0,-999.0,38,0.00,,,0.00,meteohub,2013-06-17 02:42:00,
2013-06-16 19:47:00,73.2,39.0,17.73,North,-999,-999.0,-999.0,38,0.00,,,0.00,meteohub,2013-06-17 02:47:00,
2013-06-16 19:52:00,73.0,38.8,17.73,North,-999,-999.0,-999.0,38,0.00,,,0.00,meteohub,2013-06-17 02:52:00,
2013-06-16 19:57:00,72.7,39.4,17.73,North,-999,-999.0,-999.0,38,0.00,,,0.00,meteohub,2013-06-17 02:57:00,
2013-06-16 20:02:00,72.5,39.4,17.73,North,-999,-999.0,-999.0,38,0.00,,,0.00,meteohub,2013-06-17 03:02:00,
2013-06-16 20:07:00,72.1,39.0,17.73,North,-999,-999.0,-999.0,38,0.00,,,0.00,meteohub,2013-06-17 03:07:00,
2013-06-16 20:12:00,71.8,38.7,17.73,North,-999,-999.0,-999.0,38,0.00,,,0.00,meteohub,2013-06-17 03:12:00,
2013-06-16 20:17:00,71.6,38.5,17.73,North,-999,-999.0,-999.0,38,0.00,,,0.00,meteohub,2013-06-17 03:17:00,
2013-06-16 20:22:00,71.4,39.2,17.73,North,-999,-999.0,-999.0,38,0.00,,,0.00,meteohub,2013-06-17 03:22:00,
2013-06-16 20:27:00,71.1,38.8,17.73,North,-999,-999.0,-999.0,38,0.00,,,0.00,meteohub,2013-06-17 03:27:00,
2013-06-16 20:32:00,70.9,39.6,17.73,North,-999,-999.0,-999.0,38,0.00,,,0.00,meteohub,2013-06-17 03:32:00,
2013-06-16 20:37:00,70.5,39.2,17.73,North,-999,-999.0,-999.0,38,0.00,,,0.00,meteohub,2013-06-17 03:37:00,
2013-06-16 20:42:00,70.3,39.0,17.73,North,-999,-999.0,-999.0,38,0.00,,,0.00,meteohub,2013-06-17 03:42:00,
2013-06-16 20:47:00,70.0,38.8,17.73,North,-999,-999.0,-999.0,38,0.00,,,0.00,meteohub,2013-06-17 03:47:00,
2013-06-16 20:52:00,69.6,38.5,17.73,North,-999,-999.0,-999.0,37,0.00,,,0.00,meteohub,2013-06-17 03:52:00,
2013-06-16 20:57:00,69.6,38.5,17.73,North,-999,-999.0,-999.0,37,0.00,,,0.00,meteohub,2013-06-17 03:57:00,
2013-06-16 21:01:00,69.3,38.8,17.73,North,-999,-999.0,-999.0,37,0.00,,,0.00,meteohub,2013-06-17 04:01:00,
2013-06-16 21:02:00,69.3,38.8,17.73,North,-999,-999.0,-999.0,37,0.00,,,0.00,meteohub,2013-06-17 04:02:00,
2013-06-16 21:03:00,69.3,38.8,17.73,North,-999,-999.0,-999.0,37,0.00,,,0.00,meteohub,2013-06-17 04:03:00,
2013-06-16 21:08:00,69.1,38.8,17.73,North,-999,-999.0,-999.0,37,0.00,,,0.00,meteohub,2013-06-17 04:08:00,
2013-06-16 21:13:00,68.9,38.7,17.73,North,-999,-999.0,-999.0,37,0.00,,,0.00,meteohub,2013-06-17 04:13:00,
2013-06-16 21:18:00,68.5,38.3,17.73,North,-999,-999.0,-999.0,37,0.00,,,0.00,meteohub,2013-06-17 04:18:00,
2013-06-16 21:23:00,68.2,38.7,17.73,North,-999,-999.0,-999.0,37,0.00,,,0.00,meteohub,2013-06-17 04:23:00,
2013-06-16 21:29:00,67.8,39.2,17.73,North,-999,-999.0,-999.0,37,0.00,,,0.00,meteohub,2013-06-17 04:29:00,
2013-06-16 21:34:00,67.6,39.0,17.73,North,-999,-999.0,-999.0,37,0.00,,,0.00,meteohub,2013-06-17 04:34:00,
2013-06-16 21:39:00,67.3,39.4,17.73,North,-999,-999.0,-999.0,37,0.00,,,0.00,meteohub,2013-06-17 04:39:00,
2013-06-16 21:44:00,67.1,39.2,17.73,North,-999,-999.0,-999.0,38,0.00,,,0.00,meteohub,2013-06-17 04:44:00,
2013-06-16 21:49:00,66.7,39.0,17.73,North,-999,-999.0,-999.0,38,0.00,,,0.00,meteohub,2013-06-17 04:49:00,
2013-06-16 21:54:00,66.6,39.6,17.73,North,-999,-999.0,-999.0,38,0.00,,,0.00,meteohub,2013-06-17 04:54:00,
2013-06-16 21:59:00,66.4,39.4,17.73,North,-999,-999.0,-999.0,38,0.00,,,0.00,meteohub,2013-06-17 04:59:00,
2013-06-16 22:04:00,66.0,39.7,17.73,North,-999,-999.0,-999.0,38,0.00,,,0.00,meteohub,2013-06-17 05:04:00,
2013-06-16 22:10:00,65.7,39.4,17.73,North,-999,-999.0,-999.0,38,0.00,,,0.00,meteohub,2013-06-17 05:10:00,
2013-06-16 22:15:00,65.5,39.9,17.73,North,-999,-999.0,-999.0,38,0.00,,,0.00,meteohub,2013-06-17 05:15:00,
2013-06-16 22:20:00,65.3,40.3,17.73,North,-999,-999.0,-999.0,38,0.00,,,0.00,meteohub,2013-06-17 05:20:00,
2013-06-16 22:25:00,65.1,40.3,17.73,North,-999,-999.0,-999.0,37,0.00,,,0.00,meteohub,2013-06-17 05:25:00,
2013-06-16 22:30:00,64.9,40.1,17.73,North,-999,-999.0,-999.0,37,0.00,,,0.00,meteohub,2013-06-17 05:30:00,
2013-06-16 22:35:00,64.9,40.1,17.73,North,-999,-999.0,-999.0,37,0.00,,,0.00,meteohub,2013-06-17 05:35:00,
2013-06-16 22:40:00,64.8,39.9,17.73,North,-999,-999.0,-999.0,37,0.00,,,0.00,meteohub,2013-06-17 05:40:00,
2013-06-16 22:45:00,64.4,39.6,17.73,North,-999,-999.0,-999.0,37,0.00,,,0.00,meteohub,2013-06-17 05:45:00,
2013-06-16 22:50:00,64.0,40.5,17.73,North,-999,-999.0,-999.0,37,0.00,,,0.00,meteohub,2013-06-17 05:50:00,
2013-06-16 22:55:00,63.7,40.8,17.73,North,-999,-999.0,-999.0,37,0.00,,,0.00,meteohub,2013-06-17 05:55:00,
2013-06-16 23:01:00,63.7,40.8,17.73,North,-999,-999.0,-999.0,37,0.00,,,0.00,meteohub,2013-06-17 06:01:00,
2013-06-16 23:06:00,63.5,40.6,17.73,North,-999,-999.0,-999.0,37,0.00,,,0.00,meteohub,2013-06-17 06:06:00,
2013-06-16 23:11:00,63.3,40.5,17.73,North,-999,-999.0,-999.0,37,0.00,,,0.00,meteohub,2013-06-17 06:11:00,
2013-06-16 23:16:00,63.1,40.8,17.73,North,-999,-999.0,-999.0,37,0.00,,,0.00,meteohub,2013-06-17 06:16:00,
2013-06-16 23:21:00,63.0,40.6,17.73,North,-999,-999.0,-999.0,37,0.00,,,0.00,meteohub,2013-06-17 06:21:00,
2013-06-16 23:26:00,63.0,40.6,17.73,North,-999,-999.0,-999.0,37,0.00,,,0.00,meteohub,2013-06-17 06:26:00,
2013-06-16 23:31:00,62.6,40.5,17.73,North,-999,-999.0,-999.0,37,0.00,,,0.00,meteohub,2013-06-17 06:31:00,
2013-06-16 23:36:00,62.4,40.8,17.73,North,-999,-999.0,-999.0,37,0.00,,,0.00,meteohub,2013-06-17 06:36:00,
2013-06-16 23:41:00,62.2,41.2,17.73,North,-999,-999.0,-999.0,37,0.00,,,0.00,meteohub,2013-06-17 06:41:00,
2013-06-16 23:46:00,61.9,40.8,17.73,North,-999,-999.0,-999.0,37,0.00,,,0.00,meteohub,2013-06-17 06:46:00,
2013-06-16 23:51:00,61.7,40.6,17.73,North,-999,-999.0,-999.0,38,0.00,,,0.00,meteohub,2013-06-17 06:51:00,
2013-06-16 23:56:00,61.7,41.2,17.73,North,-999,-999.0,-999.0,38,0.00,,,0.00,meteohub,2013-06-17 06:56:00,